Weather in Podol'sk

Russia / Republic of Bashkortostan     52°02′32″N   58°26′26″E
temp.,
°C
wind,
m/s
gust,
m/s
humid.,
%
clouds,
%
prec.,
mm/h
press.,
hPa
HPBL,
m
28 february, sun
sun2823:00−7sse3596100 1.1 1006204
02:00−6se1297100 0.6 100526
05:00−5ne3497100 2.3 1003100
08:00−8nne4696100 1.3 1002116
11:00−8nne459699 1.8 1001142
14:00−7nne3496100 0.6 1001172
17:00−7nne3595100 1.0 1002162
20:00−9nne359599 0.1 100599
1 march, mon
mon123:00−11n2395100 0.2 100826
02:00−12n1196100 0.1 101121
05:00−13w2396100 0.2 101330
08:00−14w359584 0.1 101596
11:00−12w359269 0.1 1016198
14:00−10wsw349138 0.0 1017329
17:00−9wsw579267 0.1 1017383
20:00−12w599290 0.1 1018274
2 march, tue
tue223:00−14w599191 0.1 1019256
02:00−17w599269 0.0 1019181
05:00−17w5109179 0.0 1019250
08:00−21w599522 0.0 1019148
11:00−17w699111 0.0 1019306
14:00−14wsw58880 0.0 1017399
17:00−14wsw5108711 0.0 1016355
20:00−17sw5119387 0.0 1015289
3 march, wed
wed323:00−14sw5119293 0.0 1014393
02:00−10ssw61392100 0.1 1011481
05:00−7ssw71592100 0.1 1008665
08:00−5ssw81492100 0.1 1005751
11:00−3ssw81491100 0.2 1004944
14:00−1sw81190100 0.2 1003952
17:00−1sw61092100 0.3 1001618
20:00−4sw4795100 0.0 1001156
4 march, thu
thu423:00−5wsw51092100 0.1 1003244
02:00−6w5109199 0.0 1003267
05:00−9wnw489199 0.0 1005159
08:00−12wnw5109078 0.0 1007158
11:00−7wnw6108789 0.0 1008437
14:00−4wnw478399 0.0 1010923
17:00−5w5108597 0.1 1012410
20:00−10w5119025 0.0 1014187